Location: Gebenbach
(49.5378°N, 11.8735°E)
Time: 12:11:13
(UTC+00:00)

SeaSat 1 - Pass Details

Date: 29 October 2020
Orbit: 744 x 747 km, 108.0° (Epoch: 24 November)

Event Time Altitude Azimuth Distance (km) Brightness Sun altitude
Exits shadow 16:20:50 - 77° (ENE) 2,637 4.6 -4.8°
Reaches altitude 10° 16:22:20 10° 64° (ENE) 2,271 4.3 -5.1°
Maximum altitude 16:24:50 14° 33° (NNE) 2,002 4.2 -5.4°
Drops below altitude 10° 16:27:20 10° 2° (N) 2,276 4.8 -5.8°
Sets 16:30:38 0° 339° (NNW) 3,205 5.8 -6.4°
